| time (UTC) | temp F | wind direction | speed knots | gust knots | rain 1hr in | rain 24hr in | rain mn in | humidity % | barometer mb |
| 20260831224550 | 91 | 103 | 7.8 | 0.0 | 0.00 | 0.00 | 0.00 | 33 | 1005.7 |
| 20260831223049 | 91 | 26 | 5.2 | 0.0 | 0.00 | 0.00 | 0.00 | 30 | 1005.8 |
| 20260831221547 | 92 | 23 | 4.3 | 0.0 | 0.00 | 0.00 | 0.00 | 30 | 1006.0 |
| 20260831220048 | 92 | 21 | 5.2 | 0.0 | 0.00 | 0.00 | 0.00 | 29 | 1005.9 |
| 20260831214545 | 92 | 28 | 7.0 | 0.0 | 0.00 | 0.00 | 0.00 | 29 | 1005.9 |
| 20260831213043 | 92 | 9 | 6.1 | 0.0 | 0.00 | 0.00 | 0.00 | 28 | 1006.0 |
| 20260831211543 | 94 | 310 | 1.7 | 0.0 | 0.00 | 0.00 | 0.00 | 27 | 1006.3 |
| 20260831210040 | 93 | 58 | 1.7 | 0.0 | 0.00 | 0.00 | 0.00 | 27 | 1006.4 |
| 20260831204542 | 93 | 355 | 3.5 | 0.0 | 0.00 | 0.00 | 0.00 | 27 | 1006.5 |
| 20260831203037 | 93 | 84 | 1.7 | 0.0 | 0.00 | 0.00 | 0.00 | 27 | 1006.8 |
| 20260831201535 | 93 | 360 | 4.3 | 0.0 | 0.00 | 0.00 | 0.00 | 28 | 1007.0 |
| 20260831200032 | 92 | 195 | 3.5 | 0.0 | 0.00 | 0.00 | 0.00 | 29 | 1007.0 |
| 20260831194531 | 92 | 22 | 1.7 | 0.0 | 0.00 | 0.00 | 0.00 | 29 | 1007.1 |
| 20260831193038 | 90 | 58 | 3.5 | 0.0 | 0.00 | 0.00 | 0.00 | 30 | 1007.2 |
| 20260831191527 | 90 | 217 | 6.1 | 0.0 | 0.00 | 0.00 | 0.00 | 30 | 1007.4 |
| 20260831190038 | 90 | 236 | 3.5 | 0.0 | 0.00 | 0.00 | 0.00 | 32 | 1007.5 |
| 20260831184522 | 90 | 203 | 5.2 | 0.0 | 0.00 | 0.00 | 0.00 | 33 | 1007.5 |
| 20260831183021 | 89 | 215 | 3.5 | 0.0 | 0.00 | 0.00 | 0.00 | 33 | 1007.7 |
| 20260831181519 | 88 | 250 | 3.5 | 0.0 | 0.00 | 0.00 | 0.00 | 35 | 1007.9 |
| 20260831180018 | 88 | 247 | 5.2 | 0.0 | 0.00 | 0.00 | 0.00 | 35 | 1008.1 |
| 20260831174515 | 87 | 217 | 5.2 | 0.0 | 0.00 | 0.00 | 0.00 | 36 | 1008.3 |
| 20260831173012 | 86 | 268 | 6.1 | 0.0 | 0.00 | 0.00 | 0.00 | 37 | 1008.6 |
| 20260831171510 | 85 | 267 | 4.3 | 0.0 | 0.00 | 0.00 | 0.00 | 39 | 1008.5 |
| 20260831170007 | 85 | 259 | 5.2 | 0.0 | 0.00 | 0.00 | 0.00 | 40 | 1008.5 |
| 20260831163005 | 83 | 248 | 5.2 | 0.0 | 0.00 | 0.00 | 0.00 | 42 | 1008.5 |
| 20260831161604 | 82 | 257 | 6.1 | 0.0 | 0.00 | 0.00 | 0.00 | 44 | 1008.4 |
| 20260831160057 | 81 | 268 | 6.1 | 0.0 | 0.00 | 0.00 | 0.00 | 48 | 1008.2 |
| 20260831154555 | 80 | 211 | 7.0 | 0.0 | 0.00 | 0.00 | 0.00 | 51 | 1008.4 |
| 20260831153102 | 78 | 219 | 7.0 | 0.0 | 0.00 | 0.00 | 0.00 | 56 | 1008.3 |
| 20260831151548 | 77 | 219 | 7.0 | 0.0 | 0.00 | 0.00 | 0.00 | 56 | 1008.3 |
| 20260831150046 | 76 | 262 | 5.2 | 0.0 | 0.00 | 0.00 | 0.00 | 60 | 1008.5 |
| 20260831144539 | 74 | 240 | 6.1 | 0.0 | 0.00 | 0.00 | 0.00 | 64 | 1008.4 |
| 20260831143039 | 72 | 242 | 7.0 | 0.0 | 0.00 | 0.00 | 0.00 | 66 | 1008.6 |
| 20260831141534 | 70 | 253 | 3.5 | 0.0 | 0.00 | 0.00 | 0.00 | 72 | 1008.9 |
| 20260831140035 | 68 | 300 | 1.7 | 0.0 | 0.00 | 0.00 | 0.00 | 76 | 1008.9 |
| 20260831134530 | 66 | 248 | 1.7 | 0.0 | 0.00 | 0.00 | 0.00 | 79 | 1008.9 |
| 20260831133028 | 66 | 217 | 2.6 | 0.0 | 0.00 | 0.00 | 0.00 | 80 | 1008.8 |
| 20260831131527 | 64 | 195 | 0.9 | 0.0 | 0.00 | 0.00 | 0.00 | 80 | 1008.6 |
| 20260831130025 | 65 | 194 | 0.9 | 0.0 | 0.00 | 0.00 | 0.00 | 80 | 1008.4 |
| 20260831124524 | 64 | 193 | 2.6 | 0.0 | 0.00 | 0.00 | 0.00 | 81 | 1008.1 |
| 20260831123023 | 64 | 192 | 1.7 | 0.0 | 0.00 | 0.00 | 0.00 | 80 | 1008.0 |
| 20260831121525 | 64 | 175 | 3.5 | 0.0 | 0.00 | 0.00 | 0.00 | 80 | 1007.5 |
| 20260831120034 | 64 | 163 | 3.5 | 0.0 | 0.00 | 0.00 | 0.00 | 78 | 1007.4 |
| 20260831114520 | 64 | 155 | 2.6 | 0.0 | 0.00 | 0.00 | 0.00 | 77 | 1007.4 |
| 20260831113018 | 65 | 205 | 1.7 | 0.0 | 0.00 | 0.00 | 0.00 | 75 | 1007.3 |
| 20260831111518 | 65 | 205 | 0.0 | 0.0 | 0.00 | 0.00 | 0.00 | 75 | 1007.1 |
| 20260831110015 | 66 | 205 | 0.9 | 0.0 | 0.00 | 0.00 | 0.00 | 75 | 1007.3 |
| 20260831104513 | 67 | 205 | 1.7 | 0.0 | 0.00 | 0.00 | 0.00 | 75 | 1006.8 |
| 20260831103014 | 67 | 205 | 0.0 | 0.0 | 0.00 | 0.00 | 0.00 | 74 | 1006.9 |
| 20260831101509 | 68 | 204 | 0.0 | 0.0 | 0.00 | 0.00 | 0.00 | 73 | 1007.1 |
| 20260831100006 | 69 | 204 | 1.7 | 0.0 | 0.00 | 0.00 | 0.00 | 71 | 1007.1 |
| 20260831094507 | 69 | 205 | 0.9 | 0.0 | 0.00 | 0.00 | 0.00 | 69 | 1007.1 |
| 20260831093152 | 70 | 205 | 3.5 | 0.0 | 0.00 | 0.00 | 0.00 | 67 | 1007.6 |
| 20260831091505 | 70 | 191 | 3.5 | 0.0 | 0.00 | 0.00 | 0.00 | 65 | 1007.8 |
| 20260831090002 | 69 | 196 | 3.5 | 0.0 | 0.00 | 0.00 | 0.00 | 64 | 1007.9 |
| 20260831084651 | 69 | 207 | 2.6 | 0.0 | 0.00 | 0.00 | 0.00 | 64 | 1007.7 |
| 20260831083106 | 70 | 285 | 1.7 | 0.0 | 0.00 | 0.00 | 0.00 | 63 | 1007.6 |
| 20260831081559 | 71 | 283 | 3.5 | 0.0 | 0.00 | 0.00 | 0.00 | 61 | 1007.7 |
| 20260831080120 | 71 | 127 | 3.5 | 0.0 | 0.00 | 0.00 | 0.00 | 61 | 1006.9 |
| 20260831074556 | 70 | 157 | 3.5 | 0.0 | 0.00 | 0.00 | 0.00 | 63 | 1007.5 |
| 20260831073056 | 70 | 206 | 4.3 | 0.0 | 0.00 | 0.00 | 0.00 | 62 | 1007.8 |
| 20260831071605 | 70 | 209 | 6.1 | 0.0 | 0.00 | 0.00 | 0.00 | 61 | 1008.2 |
| 20260831070053 | 70 | 188 | 3.5 | 0.0 | 0.00 | 0.00 | 0.00 | 62 | 1007.6 |
| 20260831064556 | 70 | 236 | 3.5 | 0.0 | 0.00 | 0.00 | 0.00 | 62 | 1007.5 |
| 20260831063106 | 70 | 241 | 2.6 | 0.0 | 0.00 | 0.00 | 0.00 | 61 | 1007.4 |
| 20260831061549 | 70 | 240 | 2.6 | 0.0 | 0.00 | 0.00 | 0.00 | 61 | 1007.3 |
| 20260831060049 | 71 | 221 | 2.6 | 0.0 | 0.00 | 0.00 | 0.00 | 58 | 1007.6 |
| 20260831054544 | 71 | 213 | 2.6 | 0.0 | 0.00 | 0.00 | 0.00 | 57 | 1007.4 |
| 20260831053053 | 71 | 194 | 3.5 | 0.0 | 0.00 | 0.00 | 0.00 | 57 | 1007.1 |
| 20260831051543 | 71 | 232 | 2.6 | 0.0 | 0.00 | 0.00 | 0.00 | 57 | 1007.1 |
| 20260831050039 | 71 | 223 | 3.5 | 0.0 | 0.00 | 0.00 | 0.00 | 57 | 1006.6 |
| 20260831044540 | 72 | 215 | 2.6 | 0.0 | 0.00 | 0.00 | 0.00 | 55 | 1006.4 |
| 20260831043046 | 72 | 146 | 2.6 | 0.0 | 0.00 | 0.00 | 0.00 | 55 | 1006.5 |
| 20260831041548 | 73 | 146 | 2.6 | 0.0 | 0.00 | 0.00 | 0.00 | 54 | 1006.6 |
| 20260831040041 | 75 | 112 | 0.9 | 0.0 | 0.00 | 0.00 | 0.00 | 49 | 1006.8 |
| 20260831034539 | 76 | 112 | 1.7 | 0.0 | 0.00 | 0.00 | 0.00 | 47 | 1006.7 |
| 20260831033046 | 78 | 38 | 0.9 | 0.0 | 0.00 | 0.00 | 0.00 | 45 | 1006.6 |
| 20260831030046 | 79 | 74 | 0.9 | 0.0 | 0.00 | 0.00 | 0.00 | 43 | 1006.9 |
| 20260831024541 | 79 | 96 | 1.7 | 0.0 | 0.00 | 0.00 | 0.00 | 43 | 1007.0 |
| 20260831023035 | 79 | 287 | 0.9 | 0.0 | 0.00 | 0.00 | 0.00 | 44 | 1006.7 |
| 20260831021535 | 80 | 279 | 3.5 | 0.0 | 0.00 | 0.00 | 0.00 | 41 | 1006.5 |
| 20260831020032 | 80 | 317 | 6.1 | 0.0 | 0.00 | 0.00 | 0.00 | 41 | 1005.8 |
| 20260831014535 | 82 | 340 | 8.7 | 0.0 | 0.00 | 0.00 | 0.00 | 38 | 1005.6 |
| 20260831013031 | 84 | 317 | 12.2 | 0.0 | 0.00 | 0.00 | 0.00 | 34 | 1005.6 |
| 20260831011530 | 85 | 258 | 9.6 | 0.0 | 0.00 | 0.00 | 0.00 | 33 | 1005.2 |
| 20260831010031 | 88 | 84 | 3.5 | 0.0 | 0.00 | 0.00 | 0.00 | 34 | 1004.4 |
| 20260831004529 | 88 | 88 | 5.2 | 0.0 | 0.00 | 0.00 | 0.00 | 33 | 1004.3 |
| 20260831003029 | 89 | 100 | 3.5 | 0.0 | 0.00 | 0.00 | 0.00 | 32 | 1004.3 |
| 20260831001528 | 90 | 99 | 3.5 | 0.0 | 0.00 | 0.00 | 0.00 | 32 | 1004.2 |
| 20260831000028 | 91 | 292 | 0.0 | 0.0 | 0.00 | 0.00 | 0.00 | 30 | 1004.1 |
| 20260830234528 | 90 | 292 | 0.9 | 0.0 | 0.00 | 0.00 | 0.00 | 32 | 1004.4 |
| 20260830233027 | 91 | 292 | 0.9 | 0.0 | 0.00 | 0.00 | 0.00 | 32 | 1004.0 |
| 20260830231527 | 91 | 275 | 2.6 | 0.0 | 0.00 | 0.00 | 0.00 | 32 | 1003.7 |
| 20260830230026 | 92 | 277 | 2.6 | 0.0 | 0.00 | 0.00 | 0.00 | 30 | 1004.0 |